GSAT-14

Last updated on Wed Nov 20 2024 00:02:41 GMT+0000 (Coordinated Universal Time)

1 39498U 14001A 24323.95196550 -.00000075 00000+0 00000+0 0 9994 2 39498 0.0610 102.3574 0006573 149.3693 223.4716 1.00271707 39620
UTC large
Height (km)
Speed (km/s)
/
Latitude / Longitude
Inclination (degrees)
Orbital Period (minutes)
Azimuth
Elevation
Range (km)
Doppler Factor

Next 0 passes for location: London (51.5072 / 0.1276)

Sorry there are no passes over London.